When you browse on this site, cookies collect data to enhance your experience and personalize the content and advertising you see.
Visit our Privacy Policy to learn more. By continuing to use the site, you agree to this use of cookies and data.
  • In United Kingdom
  • List of Countries
  • For 7 days
  • Water Temperature
  • Weather Map
  • Weather Widgets
  • user-avatar
    Login

    Hourly Weather Chitila

    Today, 24 January, Friday

    Time Temperature Precipitation Wind Pressure Humidity
    00:00 +1°C° 0 mm 1 mps 766 mmHg 60%
    01:00 +1°C° 0 mm 1 mps 766 mmHg 61%
    02:00 +1°C° 0 mm 1 mps 766 mmHg 62%
    03:00 +1°C° 0 mm 1 mps 766 mmHg 63%
    04:00 0°C° 0 mm 1 mps 766 mmHg 64%
    05:00 0°C° 0 mm 1 mps 765 mmHg 65%
    06:00 0°C° 0 mm 1 mps 765 mmHg 66%
    07:00 -2°C° 0 mm 2 mps 765 mmHg 66%
    08:00 -2°C° 0 mm 2 mps 765 mmHg 67%
    09:00 -1°C° 0 mm 2 mps 765 mmHg 61%
    10:00 +1°C° 0 mm 2 mps 764 mmHg 55%
    11:00 +2°C° 0 mm 3 mps 764 mmHg 49%
    12:00 +3°C° 0 mm 3 mps 764 mmHg 46%
    13:00 +4°C° 0 mm 3 mps 763 mmHg 44%
    14:00 +5°C° 0 mm 4 mps 762 mmHg 41%
    15:00 +4°C° 0 mm 3 mps 762 mmHg 44%
    16:00 +4°C° 0 mm 3 mps 762 mmHg 46%
    17:00 +3°C° 0 mm 3 mps 761 mmHg 49%
    18:00 +2°C° 0 mm 3 mps 761 mmHg 51%
    19:00 +2°C° 0 mm 3 mps 761 mmHg 53%
    20:00 +1°C° 0 mm 3 mps 761 mmHg 55%
    21:00 0°C° 0 mm 4 mps 760 mmHg 56%
    22:00 -1°C° 0 mm 4 mps 760 mmHg 57%
    23:00 -1°C° 0 mm 4 mps 760 mmHg 58%

    Tomorrow, 25 January, Saturday

    Time Temperature Precipitation Wind Pressure Humidity
    00:00 -1°C° 0 mm 4 mps 759 mmHg 58%
    01:00 -1°C° 0 mm 4 mps 759 mmHg 59%
    02:00 -2°C° 0 mm 4 mps 758 mmHg 60%
    03:00 -2°C° 0 mm 4 mps 758 mmHg 60%
    04:00 -2°C° 0 mm 4 mps 758 mmHg 61%
    05:00 -2°C° 0 mm 4 mps 758 mmHg 62%
    06:00 -2°C° 0 mm 4 mps 758 mmHg 62%
    07:00 -2°C° 0 mm 4 mps 758 mmHg 63%
    08:00 -3°C° 0 mm 4 mps 758 mmHg 64%
    09:00 -1°C° 0 mm 4 mps 758 mmHg 58%
    10:00 +2°C° 0 mm 3 mps 758 mmHg 51%
    11:00 +3°C° 0 mm 3 mps 758 mmHg 45%
    12:00 +4°C° 0 mm 3 mps 757 mmHg 42%
    13:00 +7°C° 0 mm 2 mps 757 mmHg 38%
    14:00 +8°C° 0 mm 2 mps 757 mmHg 35%
    15:00 +7°C° 0 mm 2 mps 757 mmHg 38%
    16:00 +8°C° 0 mm 1 mps 757 mmHg 41%
    17:00 +7°C° 0 mm 1 mps 757 mmHg 44%
    18:00 +7°C° 0 mm 1 mps 757 mmHg 46%
    19:00 +6°C° 0 mm 1 mps 757 mmHg 49%
    20:00 +5°C° 0 mm 1 mps 757 mmHg 52%
    21:00 +5°C° 0 mm 1 mps 757 mmHg 53%
    22:00 +5°C° 0 mm 1 mps 758 mmHg 54%
    23:00 +5°C° 0 mm 1 mps 758 mmHg 55%

    Day after tomorrow, 26 January, Sunday

    Time Temperature Precipitation Wind Pressure Humidity
    00:00 +4°C° 0 mm 1 mps 758 mmHg 56%
    01:00 +4°C° 0 mm 1 mps 758 mmHg 57%
    02:00 +4°C° 0 mm 1 mps 758 mmHg 58%
    03:00 +3°C° 0 mm 1 mps 758 mmHg 60%
    04:00 +3°C° 0 mm 1 mps 758 mmHg 61%
    05:00 +2°C° 0 mm 2 mps 758 mmHg 62%
    06:00 +1°C° 0 mm 2 mps 758 mmHg 63%
    07:00 +1°C° 0 mm 2 mps 759 mmHg 64%
    08:00 +1°C° 0 mm 2 mps 759 mmHg 65%
    09:00 +2°C° 0 mm 2 mps 759 mmHg 60%
    10:00 +4°C° 0 mm 2 mps 759 mmHg 54%
    11:00 +5°C° 0 mm 2 mps 760 mmHg 49%
    12:00 +6°C° 0 mm 2 mps 759 mmHg 46%
    13:00 +7°C° 0 mm 2 mps 759 mmHg 44%
    14:00 +8°C° 0 mm 2 mps 759 mmHg 41%
    15:00 +8°C° 0 mm 2 mps 759 mmHg 43%
    16:00 +7°C° 0 mm 2 mps 759 mmHg 46%
    17:00 +7°C° 0 mm 2 mps 759 mmHg 48%
    18:00 +6°C° 0 mm 2 mps 759 mmHg 50%
    19:00 +5°C° 0 mm 2 mps 759 mmHg 52%
    20:00 +4°C° 0 mm 2 mps 759 mmHg 54%
    21:00 +4°C° 0 mm 2 mps 759 mmHg 55%
    22:00 +4°C° 0 mm 2 mps 759 mmHg 56%
    23:00 +3°C° 0 mm 2 mps 759 mmHg 58%

    27 January, Monday

    Time Temperature Precipitation Wind Pressure Humidity
    00:00 +2°C° 0 mm 3 mps 758 mmHg 61%
    01:00 +2°C° 0 mm 3 mps 758 mmHg 64%
    02:00 +1°C° 0 mm 3 mps 758 mmHg 67%
    03:00 +1°C° 0 mm 3 mps 758 mmHg 69%
    04:00 +1°C° 0 mm 3 mps 757 mmHg 72%
    05:00 +1°C° 0 mm 3 mps 757 mmHg 74%
    06:00 +1°C° 0 mm 3 mps 757 mmHg 76%
    07:00 +1°C° 0 mm 3 mps 757 mmHg 79%
    08:00 0°C° 0 mm 3 mps 757 mmHg 81%
    09:00 +3°C° 0 mm 2 mps 757 mmHg 78%
    10:00 +4°C° 0 mm 2 mps 757 mmHg 74%
    11:00 +5°C° 0 mm 2 mps 756 mmHg 71%
    12:00 +6°C° 0 mm 2 mps 756 mmHg 68%
    13:00 +7°C° 0 mm 2 mps 755 mmHg 66%
    14:00 +8°C° 0 mm 2 mps 755 mmHg 64%
    15:00 +8°C° 0 mm 1 mps 755 mmHg 67%
    16:00 +8°C° 0 mm 1 mps 755 mmHg 70%
    17:00 +7°C° 0 mm 0 mps 755 mmHg 73%
    18:00 +7°C° 0 mm 1 mps 754 mmHg 74%
    19:00 +7°C° 0 mm 1 mps 754 mmHg 76%
    20:00 +6°C° 0 mm 1 mps 754 mmHg 78%
    21:00 +6°C° 0 mm 1 mps 754 mmHg 78%
    22:00 +6°C° 0 mm 1 mps 754 mmHg 78%
    23:00 +5°C° 0 mm 2 mps 754 mmHg 78%

    28 January, Tuesday

    Time Temperature Precipitation Wind Pressure Humidity
    00:00 +4°C° 0 mm 2 mps 754 mmHg 79%
    01:00 +4°C° 0 mm 2 mps 753 mmHg 80%
    02:00 +4°C° 0 mm 2 mps 753 mmHg 81%
    03:00 +4°C° 0 mm 2 mps 753 mmHg 83%
    04:00 +3°C° 0 mm 2 mps 753 mmHg 85%
    05:00 +2°C° 0 mm 3 mps 753 mmHg 88%
    06:00 +3°C° 0 mm 2 mps 753 mmHg 88%
    07:00 +3°C° 0 mm 2 mps 753 mmHg 88%
    08:00 +2°C° 0 mm 2 mps 753 mmHg 89%
    09:00 +4°C° 0 mm 2 mps 753 mmHg 83%
    10:00 +5°C° 0 mm 2 mps 753 mmHg 76%
    11:00 +7°C° 0 mm 2 mps 753 mmHg 70%
    12:00 +8°C° 0 mm 3 mps 753 mmHg 65%
    13:00 +9°C° 0 mm 3 mps 752 mmHg 60%
    14:00 +10°C° 0 mm 3 mps 752 mmHg 55%
    15:00 +10°C° 0 mm 3 mps 752 mmHg 58%
    16:00 +9°C° 0 mm 3 mps 752 mmHg 62%
    17:00 +9°C° 0 mm 3 mps 752 mmHg 65%
    18:00 +8°C° 0 mm 3 mps 752 mmHg 68%
    19:00 +7°C° 0 mm 3 mps 752 mmHg 72%
    20:00 +7°C° 0 mm 3 mps 752 mmHg 75%
    21:00 +5°C° 0 mm 3 mps 752 mmHg 77%
    22:00 +5°C° 0 mm 3 mps 753 mmHg 78%
    23:00 +4°C° 0 mm 3 mps 753 mmHg 80%

    29 January, Wednesday

    Time Temperature Precipitation Wind Pressure Humidity
    00:00 +4°C° 0 mm 3 mps 753 mmHg 80%
    01:00 +4°C° 0 mm 3 mps 752 mmHg 81%
    02:00 +4°C° 0 mm 3 mps 752 mmHg 81%
    03:00 +4°C° 0 mm 3 mps 752 mmHg 82%
    04:00 +3°C° 0 mm 3 mps 752 mmHg 82%
    05:00 +3°C° 0 mm 3 mps 752 mmHg 83%
    06:00 +3°C° 0 mm 3 mps 753 mmHg 83%
    07:00 +3°C° 0 mm 3 mps 753 mmHg 84%
    08:00 +3°C° 0 mm 3 mps 753 mmHg 84%
    09:00 +4°C° 0 mm 3 mps 753 mmHg 77%
    10:00 +6°C° 0 mm 4 mps 753 mmHg 70%
    11:00 +8°C° 0 mm 4 mps 753 mmHg 62%
    12:00 +10°C° 0 mm 4 mps 753 mmHg 59%
    13:00 +11°C° 0 mm 4 mps 752 mmHg 55%
    14:00 +12°C° 0 mm 4 mps 752 mmHg 51%
    15:00 +12°C° 0 mm 3 mps 751 mmHg 54%
    16:00 +11°C° 0 mm 3 mps 751 mmHg 56%
    17:00 +12°C° 0 mm 2 mps 751 mmHg 58%
    18:00 +10°C° 0 mm 2 mps 751 mmHg 59%
    19:00 +11°C° 0 mm 1 mps 751 mmHg 60%
    20:00 +10°C° 0 mm 1 mps 751 mmHg 61%
    21:00 +10°C° 0 mm 1 mps 751 mmHg 61%
    22:00 +10°C° 0 mm 1 mps 751 mmHg 62%
    23:00 +9°C° 0 mm 1 mps 750 mmHg 63%
    Show more